[[{"header":{"parameterUnit":"m.s-1","parameterCategory":1,"la1":30.2991,"la2":30.254,"lo1":-89.0895,"lo2":-89.0444,"dy":0.0017,"dx":0.0017,"nx":28,"ny":28,"refTime":"2025-11-30T03:00:00:Z","depth":0,"parameterNumber":2,"parameterNumberName":"U-component_of_WINDS"},"data":[0,0,0,0,0,0,0,0,0,0,0,0,0,0,0,0,0,0,0,0,0,0,0,0,0,0,0,0,0,0,0,0,0,0,0,0,0,0,0,0,0,0,0,0,0,0,0,0,0,0,0,0,0,0,0,0,0,0,-3.0728,-3.0729,0,-3.0789,-3.0789,-3.079,-3.072,-3.0717,-3.0714,-3.0712,-3.0775,-3.0779,-3.0783,0,0,0,0,0,0,0,0,0,0,0,0,0,-3.0553,-3.0557,-3.0728,-3.0729,-3.073,-3.0789,-3.0789,-3.079,-3.072,-3.0717,-3.0714,-3.0711,-3.0773,-3.0778,-3.0783,0,0,0,0,0,0,0,0,0,0,0,0,0,-3.0623,-3.0558,-3.0728,-3.0702,-3.07,-3.0788,-3.0789,-3.079,-3.0721,-3.0717,-3.0713,-3.0709,-3.0772,-3.0778,-3.0784,-3.0901,0,0,-3.0803,-3.0806,0,0,0,0,0,0,0,0,-3.0619,-3.063,-3.0705,-3.0704,-3.0702,-3.0742,-3.0751,-3.0828,-3.0722,-3.0713,-3.0712,-3.0707,-3.0767,-3.0774,-3.0794,-3.0904,-3.0907,-3.0804,-3.0807,-3.081,-3.0812,0,0,0,0,0,0,0,-3.0615,-3.0627,-3.0752,-3.0706,-3.0704,-3.0687,-3.0693,-3.0765,-3.0762,-3.0713,-3.0708,-3.0716,-3.0766,-3.0788,-3.0795,-3.0908,-3.0803,-3.0809,-3.0813,-3.0815,-3.1118,-3.1122,0,0,0,0,0,0,-3.0613,-3.0623,-3.075,-3.0754,-3.065,-3.0694,-3.07,-3.0734,-3.0761,-3.0761,-3.072,-3.0713,-3.0779,-3.0788,-3.0797,-3.0936,-3.081,-3.0816,-3.0819,-3.1114,-3.1119,-3.1124,0,0,0,0,0,0,-3.0609,-3.0625,-3.0748,-3.0687,-3.0702,-3.0701,-3.0739,-3.0737,-3.0759,-3.0765,-3.0765,-3.0743,-3.0776,-3.0788,-3.0876,-3.0937,-3.0818,-3.0824,-3.1109,-3.1115,-3.1121,-3.1216,0,0,0,0,0,0,-3.0604,-3.0624,-3.0668,-3.0689,-3.0705,-3.0826,-3.0743,-3.0741,-3.077,-3.0761,-3.0787,-3.0787,-3.0774,-3.0867,-3.0882,-3.0944,-3.0829,-3.1103,-3.1112,-3.1119,-3.1208,-3.1225,-3.124,0,0,0,0,0,-3.0598,-3.0693,-3.0671,-3.0687,-3.0761,-3.083,-3.0839,-3.0822,-3.0775,-3.082,-3.0824,-3.0787,-3.0928,-3.0877,-3.0893,-3.0958,-3.1099,-3.1109,-3.1119,-3.1201,-3.1222,-3.124,0,0,0,0,0,0,-3.0681,-3.0695,-3.0671,-3.0775,-3.0802,-3.0818,-3.0874,-3.0845,-3.0886,-3.0877,-3.0853,-3.086,-3.0953,-3.0964,-3.0906,-3.1073,-3.1006,-3.1019,-3.1063,-3.1083,-3.1099,-3.1095,-3.0834,0,0,0,0,0,-3.0711,-3.0765,-3.0775,-3.0866,-3.088,-3.0875,-3.0905,-3.0889,-3.0916,-3.0927,-3.0937,-3.0965,-3.1016,-3.105,-3.1096,-3.1208,-3.1213,-3.1261,-3.1277,-3.129,-3.1303,-3.1363,-3.1385,-3.1156,-3.1156,-3.1155,0,0,-3.0774,-3.0788,-3.0824,-3.0883,-3.0902,-3.0959,-3.0885,-3.0949,-3.0992,-3.0936,-3.102,-3.1029,-3.1058,-3.1159,-3.1204,-3.1171,-3.1367,-3.1303,-3.1314,-3.1319,-3.1375,-3.1397,-3.1416,-3.1162,-3.1161,-3.116,0,0,-3.0918,-3.0934,-3.1012,-3.1032,-3.1061,-3.1057,-3.1076,-3.1096,-3.11,-3.1183,-3.1143,-3.1193,-3.1281,-3.1304,-3.1327,-3.1479,-3.1446,-3.1495,-3.158,-3.1639,-3.1658,-3.1673,-3.1729,-3.1749,-3.1507,-3.1507,-3.1507,0,-3.0993,-3.1078,-3.1056,-3.1123,-3.115,-3.1101,-3.118,-3.1201,-3.1244,-3.1264,-3.1226,-3.1335,-3.1351,-3.1457,-3.1494,-3.1514,-3.1535,-3.1492,-3.1657,-3.1672,-3.1687,-3.1739,-3.176,-3.1513,-3.1512,-3.1511,-3.1511,0,-3.1169,-3.1228,-3.1287,-3.133,-3.1363,-3.1436,-3.1425,-3.1462,-3.1442,-3.1442,-3.1528,-3.1546,-3.1595,-3.1619,-3.1601,-3.1722,-3.1701,-3.166,-3.1593,-3.1715,-3.1764,-3.1783,-3.1521,-3.1519,-3.1517,-3.1516,0,0,-3.1368,-3.1397,-3.1419,-3.1438,-3.1466,-3.1512,-3.1582,-3.163,-3.1662,-3.1693,-3.1752,-3.1827,-3.1789,-3.1815,-3.1799,-3.1851,-3.1971,-3.1804,-3.1804,-3.1835,-3.2106,-3.2138,-3.2161,-3.1949,-3.1953,-3.1956,-3.2104,0,-3.1514,-3.1635,-3.1617,-3.1734,-3.1789,-3.1743,-3.1804,-3.1829,-3.183,-3.1877,-3.1878,-3.1932,-3.1878,-3.1893,-3.1942,-3.1946,-3.2026,-3.1935,-3.2004,-3.2007,-3.2,-3.2187,-3.222,-3.2359,-3.2123,-3.2126,-3.2129,0,-3.17,-3.1738,-3.1861,-3.188,-3.1902,-3.1958,-3.2,-3.2045,-3.2071,-3.2069,-3.2098,-3.2072,-3.2142,-3.2073,-3.217,-3.2109,-3.2135,-3.2142,-3.2147,-3.2154,-3.2076,-3.22,-3.2403,-3.2425,-3.2158,-3.2156,-3.2154,0,-3.1835,-3.1916,-3.2,-3.2017,-3.2041,-3.2082,-3.2094,-3.2116,-3.2146,-3.2183,-3.2202,-3.2247,-3.2272,-3.2308,-3.2295,-3.2245,-3.2395,-3.2324,-3.2395,-3.2396,-3.243,-3.2428,-3.2642,-3.2445,-3.2445,-3.2445,-3.2444,0,-3.2,-3.2077,-3.206,-3.2112,-3.2197,-3.2175,-3.226,-3.2267,-3.2287,-3.2339,-3.2302,-3.2352,-3.2332,-3.238,-3.2371,-3.2453,-3.2464,-3.2464,-3.2461,-3.2469,-3.2469,-3.2487,-3.2478,-3.245,-3.2449,-3.2448,-3.2447,0,-3.2165,-3.2157,-3.2246,-3.2261,-3.2267,-3.2329,-3.2342,-3.2391,-3.2389,-3.2456,-3.247,-3.2467,-3.2523,-3.2513,-3.2575,-3.2568,-3.2671,-3.2655,-3.2662,-3.2659,-3.2731,-3.2725,-3.2965,-3.2996,-3.2778,-3.2781,-3.2782,0,-3.2272,-3.233,-3.2352,-3.2384,-3.2399,-3.2452,-3.2482,-3.2462,-3.2495,-3.2529,-3.2574,-3.2626,-3.2666,-3.2757,-3.2761,-3.2808,-3.2793,-3.2874,-3.28,-3.2806,-3.2796,-3.2793,-3.2799,-3.2889,-3.2892,-3.2894,-3.2896,0,-3.2463,-3.2456,-3.25,-3.2544,-3.2581,-3.2615,-3.2645,-3.2673,-3.2656,-3.2695,-3.2751,-3.2783,-3.2845,-3.2897,-3.2941,-3.2953,-3.2923,-3.2918,-3.2938,-3.2947,-3.2949,-3.2949,-3.2704,-3.2914,-3.2912,-3.291,-3.2909,-3.2909,-3.2603,-3.2653,-3.2675,-3.2727,-3.2747,-3.2775,-3.2822,-3.2825,-3.2872,-3.2921,-3.2906,-3.297,-3.2994,-3.3049,-3.3066,-3.3116,-3.3086,-3.3114,-3.3121,-3.3129,-3.3138,-3.294,-3.3124,-3.3123,-3.3123,-3.3122,-3.3122,0,-3.2793,-3.2805,-3.2852,-3.2895,-3.2935,-3.2901,-3.2932,-3.2968,-3.3025,-3.305,-3.309,-3.3155,-3.3205,-3.3212,-3.326,-3.3298,-3.3285,-3.3312,-3.3309,-3.3313,-3.3161,-3.314,-3.3321,-3.3321,-3.3321,-3.3321,-3.3321,-3.3321,-3.2896,-3.2978,-3.2974,-3.3066,-3.3077,-3.3139,-3.316,-3.3186,-3.3206,-3.328,-3.3321,-3.3325,-3.3343,-3.3391,-3.3436,-3.3437,-3.3457,-3.3489,-3.3484,-3.3343,-3.3323,-3.3304,-3.3285,-3.3493,-3.3493,-3.3632,-3.3633,-3.3634]},{"header":{"parameterUnit":"m.s-1","parameterCategory":1,"la1":30.2991,"la2":30.254,"lo1":-89.0895,"lo2":-89.0444,"dy":0.0017,"dx":0.0017,"nx":28,"ny":28,"refTime":"2025-11-30T03:00:00:Z","depth":0,"parameterNumber":3,"parameterNumberName":"V-component_of_WINDS"},"data":[0,0,0,0,0,0,0,0,0,0,0,0,0,0,0,0,0,0,0,0,0,0,0,0,0,0,0,0,0,0,0,0,0,0,0,0,0,0,0,0,0,0,0,0,0,0,0,0,0,0,0,0,0,0,0,0,0,0,-5.4316,-5.4316,0,-5.4334,-5.4335,-5.4335,-5.4265,-5.4263,-5.4261,-5.4259,-5.4276,-5.4278,-5.4281,0,0,0,0,0,0,0,0,0,0,0,0,0,-5.4219,-5.4221,-5.4316,-5.4316,-5.4317,-5.4334,-5.4335,-5.4335,-5.4265,-5.4263,-5.426,-5.4258,-5.4275,-5.4278,-5.4281,0,0,0,0,0,0,0,0,0,0,0,0,0,-5.4252,-5.4222,-5.4316,-5.4284,-5.4281,-5.4334,-5.4335,-5.4335,-5.4266,-5.4262,-5.4259,-5.4256,-5.4274,-5.4278,-5.4281,-5.4366,0,0,-5.4292,-5.4294,0,0,0,0,0,0,0,0,-5.425,-5.4255,-5.4289,-5.4286,-5.4283,-5.4294,-5.4307,-5.4345,-5.4266,-5.4272,-5.4259,-5.4255,-5.4285,-5.4287,-5.4297,-5.4367,-5.4367,-5.4293,-5.4295,-5.4296,-5.4297,0,0,0,0,0,0,0,-5.4248,-5.4254,-5.4323,-5.4289,-5.4286,-5.4268,-5.4269,-5.4314,-5.4295,-5.4271,-5.4266,-5.4269,-5.4283,-5.4294,-5.4297,-5.4368,-5.4293,-5.4296,-5.4298,-5.4299,-5.4505,-5.4508,0,0,0,0,0,0,-5.425,-5.4253,-5.4323,-5.4324,-5.4259,-5.4272,-5.4274,-5.4294,-5.4295,-5.4292,-5.4272,-5.4266,-5.4289,-5.4293,-5.4298,-5.4395,-5.4296,-5.43,-5.4302,-5.4501,-5.4505,-5.4509,0,0,0,0,0,0,-5.4248,-5.4257,-5.4322,-5.4287,-5.4294,-5.4277,-5.4301,-5.4296,-5.4307,-5.4295,-5.4291,-5.4287,-5.4287,-5.4292,-5.4349,-5.4394,-5.4301,-5.4305,-5.4498,-5.4503,-5.4507,-5.4591,0,0,0,0,0,0,-5.4245,-5.4257,-5.4289,-5.4288,-5.4296,-5.4374,-5.4303,-5.4298,-5.4314,-5.4306,-5.4308,-5.4306,-5.4285,-5.4344,-5.4353,-5.4398,-5.4307,-5.4493,-5.45,-5.4506,-5.4584,-5.4598,-5.461,0,0,0,0,0,-5.4242,-5.4312,-5.4291,-5.43,-5.4336,-5.4377,-5.4381,-5.4356,-5.4318,-5.435,-5.4342,-5.4306,-5.4388,-5.435,-5.4359,-5.4406,-5.449,-5.4498,-5.4505,-5.4578,-5.4595,-5.461,0,0,0,0,0,0,-5.4319,-5.4312,-5.4288,-5.436,-5.437,-5.4365,-5.4405,-5.4376,-5.4396,-5.4388,-5.4356,-5.4357,-5.4419,-5.4418,-5.4376,-5.4487,-5.4433,-5.4442,-5.4485,-5.4501,-5.4514,-5.4512,-5.431,0,0,0,0,0,-5.4344,-5.4378,-5.437,-5.4434,-5.444,-5.4422,-5.4438,-5.4418,-5.4427,-5.443,-5.4426,-5.4436,-5.4463,-5.4482,-5.4507,-5.4584,-5.4582,-5.462,-5.4633,-5.4644,-5.4652,-5.4691,-5.4707,-5.4533,-5.4533,-5.4533,0,0,-5.4397,-5.4397,-5.442,-5.4449,-5.4454,-5.4489,-5.4426,-5.4466,-5.4491,-5.4436,-5.4489,-5.4487,-5.4494,-5.4561,-5.459,-5.4562,-5.47,-5.4654,-5.4662,-5.4665,-5.47,-5.4716,-5.4731,-5.4538,-5.4538,-5.4537,0,0,-5.451,-5.4514,-5.4567,-5.4573,-5.4582,-5.4569,-5.4582,-5.4581,-5.4577,-5.463,-5.4589,-5.4618,-5.4667,-5.4674,-5.4684,-5.4798,-5.4765,-5.4808,-5.4875,-5.4913,-5.4927,-5.4939,-5.4978,-5.4992,-5.4816,-5.4816,-5.4816,0,-5.4574,-5.4626,-5.4598,-5.464,-5.4653,-5.4606,-5.4658,-5.4665,-5.4681,-5.4691,-5.466,-5.4719,-5.4722,-5.4788,-5.4816,-5.4826,-5.4838,-5.4806,-5.4927,-5.4939,-5.4949,-5.4986,-5.5001,-5.4821,-5.4821,-5.482,-5.482,0,-5.4703,-5.4739,-5.4781,-5.4797,-5.4815,-5.4862,-5.4841,-5.4862,-5.484,-5.483,-5.4883,-5.4884,-5.4908,-5.4922,-5.4902,-5.4985,-5.4967,-5.4933,-5.4877,-5.4971,-5.5005,-5.5019,-5.4828,-5.4826,-5.4825,-5.4824,0,0,-5.4865,-5.4864,-5.488,-5.4886,-5.4891,-5.4918,-5.4963,-5.4985,-5.5003,-5.5016,-5.5051,-5.5094,-5.5061,-5.5072,-5.5052,-5.5085,-5.5173,-5.5045,-5.5045,-5.5068,-5.5263,-5.5288,-5.5305,-5.5152,-5.5154,-5.5157,-5.5262,0,-5.4974,-5.505,-5.5026,-5.5103,-5.5134,-5.5089,-5.5127,-5.5134,-5.5126,-5.5151,-5.5142,-5.5172,-5.5127,-5.5133,-5.5165,-5.5156,-5.5212,-5.5148,-5.5183,-5.5185,-5.5181,-5.5323,-5.535,-5.5449,-5.5275,-5.5277,-5.5279,0,-5.5112,-5.513,-5.5209,-5.5207,-5.5219,-5.5255,-5.5272,-5.5298,-5.5304,-5.5296,-5.5308,-5.528,-5.5322,-5.5268,-5.5325,-5.5282,-5.5295,-5.5293,-5.5296,-5.5297,-5.5236,-5.5326,-5.548,-5.5495,-5.53,-5.5298,-5.5297,0,-5.522,-5.5264,-5.5316,-5.5323,-5.5322,-5.5347,-5.5348,-5.5352,-5.5366,-5.5382,-5.5391,-5.5412,-5.5423,-5.5439,-5.5417,-5.538,-5.5477,-5.5421,-5.547,-5.547,-5.5491,-5.549,-5.5648,-5.5503,-5.5502,-5.5502,-5.5502,0,-5.5344,-5.5394,-5.5364,-5.5396,-5.545,-5.5422,-5.5476,-5.5472,-5.5475,-5.5504,-5.5467,-5.5496,-5.5466,-5.5491,-5.5475,-5.5523,-5.5529,-5.5522,-5.5517,-5.5525,-5.5526,-5.5532,-5.5524,-5.5506,-5.5505,-5.5504,-5.5504,0,-5.5473,-5.5456,-5.5509,-5.5504,-5.5504,-5.5544,-5.5539,-5.5568,-5.5556,-5.5595,-5.5602,-5.5584,-5.5613,-5.5593,-5.5621,-5.5609,-5.5673,-5.5659,-5.5671,-5.5666,-5.5715,-5.571,-5.5882,-5.5902,-5.5745,-5.5747,-5.5748,0,-5.5553,-5.559,-5.5588,-5.5605,-5.5608,-5.5637,-5.5651,-5.5624,-5.5641,-5.565,-5.5677,-5.5702,-5.5721,-5.5768,-5.5757,-5.5778,-5.5763,-5.5822,-5.5766,-5.5772,-5.5762,-5.5759,-5.5762,-5.5832,-5.5834,-5.5836,-5.5837,0,-5.5695,-5.5684,-5.5706,-5.5725,-5.5743,-5.5757,-5.5768,-5.5784,-5.5757,-5.5777,-5.5805,-5.5819,-5.5847,-5.5872,-5.5889,-5.5889,-5.5858,-5.5855,-5.5867,-5.5874,-5.5879,-5.5875,-5.57,-5.5851,-5.5849,-5.5848,-5.5848,-5.5847,-5.58,-5.583,-5.5833,-5.5859,-5.5864,-5.5874,-5.5901,-5.5893,-5.5916,-5.5936,-5.5919,-5.5952,-5.5956,-5.5975,-5.5979,-5.6004,-5.598,-5.5998,-5.6002,-5.6007,-5.6013,-5.5876,-5.6007,-5.6007,-5.6007,-5.6006,-5.6006,0,-5.5939,-5.5938,-5.5962,-5.5978,-5.5998,-5.5967,-5.5977,-5.5995,-5.6025,-5.6031,-5.6049,-5.6081,-5.6104,-5.6096,-5.6116,-5.6138,-5.6124,-5.6144,-5.6141,-5.6141,-5.6034,-5.6021,-5.6154,-5.6154,-5.6154,-5.6154,-5.6154,-5.6154,-5.6013,-5.6062,-5.6051,-5.6101,-5.61,-5.6132,-5.614,-5.6149,-5.6153,-5.619,-5.6209,-5.6203,-5.6203,-5.6222,-5.6242,-5.6239,-5.6247,-5.6272,-5.6264,-5.6164,-5.6149,-5.6135,-5.6122,-5.6275,-5.6275,-5.6368,-5.6369,-5.637]}]]